Weather History for Fort Benning, GA

Change the Weather History Date:

Friday, January 18, 2013

  Actual Average Record
Temperature  
Mean Temperature 44 °F -  
Max Temperature 59 °F 57 °F 69 °F (1999)
Min Temperature 30 °F 32 °F 15 °F (1997)
Degree Days  
Heating Degree Days 20    
Moisture  
Dew Point 31 °F    
Average Humidity 68    
Maximum Humidity 97    
Minimum Humidity 28    
Precipitation  
Precipitation 0.00 in - - ()
Sea Level Pressure  
Sea Level Pressure 30.42 in    
Wind  
Wind Speed 5 mph (North)    
Max Wind Speed 12 mph    
Max Gust Speed -    
Visibility 10 miles    
Events      
Averages and records for this station are not official NWS values.
T = Trace of Precipitation, MM = Missing Value Source: NWS Daily Summary

Daily Weather History Graph

Daily Weather History Graph

Search for Another Location

Airport:

Trip Planner

Search our weather history database for the weather conditions in past years. The results will help you decide how hot, cold, wet, or windy it might be!

Date:

Astronomy

Jan. 18, 2013 Rise Set
Actual Time 7:40 AM EST 6:00 PM EST
Civil Twilight 7:14 AM EST 6:26 PM EST
Nautical Twilight 6:44 AM EST 6:56 PM EST
Astronomical Twilight 6:14 AM EST 7:26 PM EST
Moon 11:47 AM EST (1/18) 12:23 AM EST (1/18)
Length of Visible Light 11h 12m
Length of Day
10h 19m
Waxing Crescent, 47% of the Moon is Illuminated
Jan 18
Waxing Crescent
Jan 18
First Quarter
Jan 26
Full
Feb 3
Last Quarter
Feb 10
New

Hourly Weather History & Observations

Time (EST) Temp. Windchill Dew Point Humidity Pressure Visibility Wind Dir Wind Speed Gust Speed Precip Events Conditions
12:55 AM 41.2 °F 34.5 °F 33.3 °F 73% 30.27 in 10.0 mi North 11.5 mph - N/A   Clear
1:55 AM 40.3 °F 35.5 °F 32.5 °F 74% 30.30 in 10.0 mi North 6.9 mph - N/A   Clear
2:55 AM 39.0 °F 34.0 °F 31.6 °F 75% 30.32 in 10.0 mi North 6.9 mph - N/A   Clear
3:55 AM 37.8 °F 32.5 °F 30.9 °F 76% 30.34 in 10.0 mi North 6.9 mph - N/A   Clear
4:55 AM 33.8 °F 28.6 °F 30.0 °F 86% 30.35 in 10.0 mi NNW 5.8 mph - N/A   Clear
5:55 AM 31.6 °F 26.0 °F 28.8 °F 89% 30.37 in 10.0 mi North 5.8 mph - N/A   Clear
6:55 AM 30.9 °F - 28.9 °F 92% 30.40 in 8.0 mi Calm Calm - N/A   Clear
7:55 AM 30.9 °F - 28.9 °F 92% 30.44 in 10.0 mi Calm Calm - N/A   Clear
8:55 AM 36.1 °F - 32.2 °F 86% 30.47 in 10.0 mi Calm Calm - N/A   Clear
9:55 AM 41.7 °F - 30.9 °F 66% 30.51 in 10.0 mi Calm Calm - N/A   Clear
10:55 AM 45.7 °F 44.4 °F 31.6 °F 58% 30.51 in 10.0 mi North 3.5 mph - N/A   Clear
11:55 AM 49.1 °F - 33.4 °F 55% 30.49 in 10.0 mi Variable 3.5 mph - N/A   Clear
12:55 PM 52.2 °F - 33.1 °F 48% 30.46 in 10.0 mi Variable 5.8 mph - N/A   Clear
1:55 PM 56.3 °F - 31.3 °F 39% 30.44 in 10.0 mi NNW 8.1 mph - N/A   Clear
2:55 PM 59.0 °F - 26.8 °F 29% 30.43 in 10.0 mi NNE 8.1 mph - N/A   Clear
3:55 PM 59.5 °F - 26.6 °F 28% 30.42 in 10.0 mi East 5.8 mph - N/A   Clear
4:55 PM 58.5 °F - 27.1 °F 30% 30.42 in 10.0 mi ENE 6.9 mph - N/A   Clear
5:55 PM 55.0 °F - 27.1 °F 34% 30.43 in 10.0 mi ENE 3.5 mph - N/A   Clear
6:55 PM 45.0 °F - 33.6 °F 64% 30.44 in 10.0 mi Calm Calm - N/A   Clear
7:55 PM 39.7 °F - 33.8 °F 79% 30.45 in 10.0 mi Calm Calm - N/A   Clear
8:55 PM 37.4 °F - 34.7 °F 90% 30.47 in 10.0 mi Calm Calm - N/A   Clear
9:55 PM 35.6 °F - 32.4 °F 88% 30.46 in 10.0 mi Calm Calm - N/A   Clear
10:55 PM 32.5 °F - 30.9 °F 94% 30.45 in 10.0 mi Calm Calm - N/A   Clear
11:55 PM 32.2 °F - 31.5 °F 97% 30.44 in 10.0 mi Calm Calm - N/A   Clear